Asheville, NC

4:52 AM EST on November 22, 2019 (GMT -0500)
Asheville Regional

Weather History for KAVL - October, 2019

Change the Weather History Date:

Wednesday, October 16, 2019

  Actual Average Record
Temperature  
Mean Temperature 58 °F 56 °F  
Max Temperature 68 °F 68 °F 87 °F (1897)
Min Temperature 47 °F 44 °F 29 °F (1939)
Degree Days  
Heating Degree Days 7 9  
Month to date heating degree days 29 110  
Since 1 July heating degree days 31 167  
Cooling Degree Days 0 0  
Month to date cooling degree days 54 7  
Year to date cooling degree days 1327 859  
Growing Degree Days 8 (Base 50)    
Moisture  
Dew Point 49 °F    
Average Humidity 66    
Maximum Humidity 93    
Minimum Humidity 39    
Precipitation  
Precipitation 0.07 in 0.09 in 2.43 in (1964)
Month to date precipitation 0.84 1.55  
Year to date precipitation 43.45 36.97  
Snow  
Snow 0.00 in 0.00 in T in (1977)
Month to date snowfall 0.0 0.0  
Since 1 July snowfall 0.0 0.0  
Since 1 September snowfall 0.0 0.0  
Snow Depth 0.00 in    
Sea Level Pressure  
Sea Level Pressure 29.80 in    
Wind  
Wind Speed 11 mph (NE)    
Max Wind Speed 24 mph    
Max Gust Speed 32 mph    
Visibility 9 miles    
Events Rain    
T = Trace of Precipitation, MM = Missing Value Source: NWS Daily Summary

Daily Weather History Graph

Daily Weather History Graph

Search for Another Location

Airport or City:

Astronomy

Oct. 16, 2019 Rise Set
Actual Time 7:37 AM EDT 6:53 PM EDT
Civil Twilight 7:11 AM EDT 7:19 PM EDT
Nautical Twilight 6:41 AM EDT 7:48 PM EDT
Astronomical Twilight 6:12 AM EDT 8:18 PM EDT
Moon 8:51 PM EDT (10/16) 10:02 AM EDT (10/16)
Length of Visible Light 12h 08m
Length of Day
11h 16m
Waning Gibbous, 93% of the Moon is Illuminated
Oct 16
Waning Gibbous
Oct 21
Last Quarter
Oct 27
New
Nov 4
First Quarter
Nov 12
Full

Hourly Weather History & Observations

Time (EDT) Temp. Dew Point Humidity Pressure Visibility Wind Dir Wind Speed Gust Speed Precip Events Conditions
12:54 AM 60.1 °F 53.1 °F 78% 29.93 in 10.0 mi South 3.5 mph - N/A   Overcast
1:54 AM 60.1 °F 53.1 °F 78% 29.91 in 10.0 mi Calm Calm - N/A   Overcast
2:54 AM 59.0 °F 53.1 °F 81% 29.88 in 10.0 mi SE 3.5 mph - N/A   Overcast
3:54 AM 59.0 °F 52.0 °F 78% 29.83 in 10.0 mi SSE 6.9 mph - N/A   Overcast
4:54 AM 57.9 °F 53.1 °F 84% 29.82 in 10.0 mi SE 5.8 mph - N/A   Overcast
5:30 AM 57.9 °F 53.1 °F 84% 29.85 in 10.0 mi SE 3.5 mph - N/A   Overcast
5:54 AM 57.0 °F 54.0 °F 89% 29.80 in 10.0 mi SSE 4.6 mph - 0.00 in   Overcast
6:09 AM 57.0 °F 54.0 °F 89% 29.84 in 9.0 mi SSE 3.5 mph - N/A   Overcast
6:39 AM 57.0 °F 54.0 °F 89% 29.83 in 2.0 mi SE 4.6 mph - 0.02 in Rain Rain
6:52 AM 57.2 °F 55.4 °F 94% 29.83 in 3.0 mi SE 4.6 mph - 0.05 in Rain Light Rain
6:53 AM 57.0 °F 55.0 °F 93% 29.78 in 3.0 mi SE 5.8 mph - 0.05 in Rain Light Rain
7:25 AM 57.0 °F 55.0 °F 93% 29.82 in 3.0 mi SSE 6.9 mph - 0.00 in Rain Light Rain
7:54 AM 57.0 °F 55.0 °F 93% 29.76 in 5.0 mi SE 4.6 mph - 0.01 in   Overcast
8:42 AM 57.0 °F 55.0 °F 93% 29.79 in 10.0 mi Variable 3.5 mph - 0.00 in   Overcast
8:54 AM 57.9 °F 55.0 °F 90% 29.74 in 10.0 mi SSE 6.9 mph - 0.00 in   Overcast
9:54 AM 59.0 °F 55.0 °F 87% 29.76 in 6.0 mi NNW 5.8 mph - 0.00 in Rain Light Rain
10:16 AM 60.1 °F 55.9 °F 86% 29.78 in 10.0 mi Calm Calm - 0.00 in   Overcast
10:54 AM 62.1 °F 57.0 °F 84% 29.73 in 8.0 mi NNW 8.1 mph - 0.01 in   Overcast
11:54 AM 63.0 °F 55.9 °F 78% 29.73 in 10.0 mi North 10.4 mph - N/A   Mostly Cloudy
12:54 PM 66.9 °F 54.0 °F 63% 29.71 in 10.0 mi NNW 12.7 mph 23.0 mph N/A   Mostly Cloudy
1:54 PM 64.9 °F 51.1 °F 61% 29.72 in 10.0 mi North 19.6 mph 27.6 mph 0.00 in   Mostly Cloudy
2:54 PM 64.0 °F 43.0 °F 46% 29.74 in 10.0 mi NNW 18.4 mph 31.1 mph N/A   Partly Cloudy
3:54 PM 62.1 °F 37.0 °F 39% 29.75 in 10.0 mi North 16.1 mph 28.8 mph N/A   Clear
4:54 PM 61.0 °F 37.0 °F 41% 29.77 in 10.0 mi North 12.7 mph 21.9 mph N/A   Clear
5:54 PM 60.1 °F 36.0 °F 41% 29.78 in 10.0 mi North 12.7 mph 18.4 mph N/A   Clear
6:54 PM 55.9 °F 37.0 °F 49% 29.80 in 10.0 mi North 11.5 mph - N/A   Clear
7:54 PM 55.0 °F 37.0 °F 51% 29.83 in 10.0 mi North 15.0 mph 23.0 mph N/A   Scattered Clouds
8:54 PM 54.0 °F 37.0 °F 53% 29.84 in 10.0 mi North 12.7 mph 23.0 mph N/A   Partly Cloudy
9:54 PM 51.1 °F 36.0 °F 56% 29.85 in 10.0 mi North 17.3 mph 23.0 mph N/A   Partly Cloudy
10:54 PM 48.9 °F 33.1 °F 54% 29.85 in 10.0 mi North 13.8 mph 26.5 mph N/A   Clear
11:54 PM 48.0 °F 32.0 °F 54% 29.88 in 10.0 mi NW 18.4 mph 28.8 mph N/A   Partly Cloudy